Voltar ao catálogo

FENGYUN 1C DEB

AtivoSSO
NORAD 31757·DEBRIS·🇨🇳 China

Lançado May 10, 1999 de Taiyuan Satellite Launch Center

Loading…

Próximas Passagens (próximas 24 horas)

TLE

AtualizadoSource: Space-Track

Época: Sep 14, 2026, 06:40 UTC

1 31757U 99025CFG 26257.27797218  .00000335  00000-0  17880-3 0  9991
2 31757  98.7514 276.4284 0216530  26.6651 334.5463 14.08150794677596

Acompanhe FENGYUN 1C DEB em tempo real com AllMySat

Download on the App Store